This is the latest recevied weather packets stored in our database for station/object WD4ITN. If no packets are shown the sender has not sent any weather packets the latest 10 day(s).
| Time | Temp. | Humidity | Pressure | Rain* | Wind** | Luminosity | Snow |
|---|---|---|---|---|---|---|---|
| 1788027512 | 24.44° C | 75% | 1023.9 hPa | 0 mm | - | - | - |
| 1788027200 | 23.89° C | 75% | 1023.9 hPa | 0 mm | - | - | - |
| 1788026897 | 24.44° C | 74% | 1023.9 hPa | 0 mm | - | - | - |
| 1788026599 | 23.89° C | 74% | 1023.9 hPa | 0 mm | - | - | - |
| 1788026297 | 24.44° C | 73% | 1023.9 hPa | 0 mm | - | - | - |
| 1788026014 | 25° C | 71% | 1023.9 hPa | 0 mm | - | - | - |
| 1788025705 | 24.44° C | 76% | 1024 hPa | 0 mm | - | - | - |
| 1788025403 | 24.44° C | 77% | 1024.1 hPa | 0 mm | - | - | - |
| 1788025100 | 24.44° C | 73% | 1024.1 hPa | 0 mm | - | - | - |
| 1788024799 | 24.44° C | 76% | 1024.2 hPa | 0 mm | - | - | - |
| 1788024496 | 23.89° C | 76% | 1024.3 hPa | 0 mm | - | - | - |
| 1788024191 | 23.89° C | 73% | 1024.3 hPa | 0 mm | - | - | - |
| 1788023912 | 23.89° C | 76% | 1024.3 hPa | 0 mm | - | - | - |
| 1788023611 | 23.89° C | 77% | 1024.4 hPa | 0 mm | - | - | - |
| 1788023310 | 23.33° C | 77% | 1024.5 hPa | 0 mm | - | - | - |
| 1788023011 | 23.33° C | 78% | 1024.6 hPa | 0 mm | - | - | - |
| 1788022697 | 22.78° C | 79% | 1024.7 hPa | 0 mm | - | - | - |
| 1788022394 | 22.78° C | 77% | 1024.8 hPa | 0 mm | - | - | - |
| 1788022109 | 22.78° C | 77% | 1024.8 hPa | 0 mm | - | - | - |
| 1788021809 | 22.78° C | 78% | 1024.7 hPa | 0 mm | - | - | - |
| 1788021509 | 22.78° C | 79% | 1024.7 hPa | 0 mm | - | - | - |
| 1788021197 | 22.78° C | 78% | 1024.6 hPa | 0 mm | - | - | - |
| 1788020893 | 22.78° C | 80% | 1024.6 hPa | 0 mm | - | - | - |
| 1788020596 | 22.22° C | 81% | 1024.6 hPa | 0 mm | - | - | - |
| 1788020294 | 21.67° C | 79% | 1024.8 hPa | 0 mm | - | - | - |
* Rain since midnight (hover to see other rain measurements)
** Current wind speed in m/s (hover to see current wind gust speed)